Regional Weather Roundup
Issued by NWS State College, PA

Current Version | Previous Version | Text Only | Print | Product List | Glossary On
Versions: 1 2 3 4 5 6 7 8 9 10 11 12 13 14 15 16 17 18 19 20 21 22 23 24 25 26 27 28 29 30 31 32 33 34 35 36 37 38 39 40 41 42 43 44 45 46 47 48 49 50
000
ASUS41 KCTP 031910
RWRCTP

REGIONAL WEATHER ROUNDUP
NATIONAL WEATHER SERVICE STATE COLLEGE PA
300 PM EDT MON AUG 03 2015

Note: "fair" indicates few or no clouds below 12,000 feet with no
significant weather and/or obstructions to visibility.

* = STATION THAT DOES NOT REPORT PRECIPITATION /E.G. RAIN...SNOW...ETC/
    THUNDER OR FOG.

PAZ002>004-007>009-013>016-020>023-029>032-032000-
WESTERN PENNSYLVANIA

CITY           SKY/WX    TMP DP  RH WIND       PRES   REMARKS
ERIE           PTSUNNY   77  62  59 NW10      29.82S
MEADVILLE      LGT RAIN  76  59  55 NW6       29.85R
FRANKLIN*      PTSUNNY   81  59  47 SW8       29.86S
NEW CASTLE     MOCLDY    84  63  49 VRB7      29.83F
BEAVER COUNTY  PTSUNNY   84  63  48 SW12      29.84F
BUTLER*        MOSUNNY   81  59  47 W8        29.86F
PITTSBURGH INT PTSUNNY   82  58  43 SW8       29.84F
PITTSBURGH     MOSUNNY   82  55  39 W7G18     29.84F
INDIANA*       MOSUNNY   81  61  50 W9G20     29.89S
LATROBE        PTSUNNY   82  59  44 SW12      29.87F
WASHINGTON CO* NOT AVBL
$$

PAZ004>006-010>012-017>019-024>028-033>037-041-042-045-046-049>053-032000-
CENTRAL PENNSYLVANIA

CITY           SKY/WX    TMP DP  RH WIND       PRES   REMARKS
BRADFORD       PTSUNNY   74  55  51 SW9       29.86S
DUBOIS         PTSUNNY   79  58  48 SW9       29.85F
CLEARFIELD     PTSUNNY   80  59  48 SW8       29.85S
JOHNSTOWN      PTSUNNY   78  56  46 W13       29.90S
ALTOONA        PTSUNNY   82  58  43 W10G18    29.87S
STATE COLLEGE  MOSUNNY   81  61  50 W9G17     29.84S
WILLIAMSPORT   MOSUNNY   88  58  36 W14G22    29.77F
SELINSGROVE    MOSUNNY   86  64  47 VRB7      29.80S
FT INDIANTOWN  PTSUNNY   87  63  45 SW9       29.80F
CAPITAL CITY   PTSUNNY   89  61  38 SW7       29.80S
HARRISBURG     PTSUNNY   89  63  41 VRB7      29.80S
YORK           PTSUNNY   86  66  51 SW8       29.82F
$$

PAZ038>040-043-044-047-048-054-055-060>062-067>071-032000-
EASTERN PENNSYLVANIA

CITY           SKY/WX    TMP DP  RH WIND       PRES   REMARKS
SCRANTON       PTSUNNY   86  61  42 W15G23    29.80S
MOUNT POCONO   MOSUNNY   79  61  53 SW14      29.86S
ALLENTOWN      MOSUNNY   86  64  47 SW13G21   29.80S
QUAKERTOWN*    PTCLDY    88  61  40 SW14G20   29.82S
READING        PTSUNNY   88  64  44 W13       29.79F
LANCASTER      MOSUNNY   87  63  44 SW13      29.81F
COATESVILLE    LGT RAIN  84  64  51 SE6       29.84S
POTTSTOWN      MOSUNNY   87  62  43 S12G20    29.83F
BLUE BELL      SUNNY     90  63  40 S9        29.81F
DOYLESTOWN     MOSUNNY   85  58  39 S13G22    29.80F
WILLOW GROVE   NOT AVBL
NORTH PHILA    SUNNY     90  57  32 SW14G21   29.82F
PHILADELPHIA   MOSUNNY   91  60  35 SW15      29.81F
$$



USA.gov is the U.S. government's official web portal to all federal, state and local government web resources and services.